Regional Weather Roundup
Issued by NWS Burlington, VT

Home | Current Version | Previous Version | Text Only | Print | Product List | Glossary On
Versions: 1 2 3 4 5 6 7 8 9 10 11 12 13 14 15 16 17 18 19 20 21 22 23 24 25 26 27 28 29 30 31 32 33 34 35 36 37 38 39 40 41 42 43 44 45 46 47 48 49 50
000
ASUS41 KBTV 050510
RWRBTV
VERMONT REGIONAL WEATHER ROUNDUP
NATIONAL WEATHER SERVICE BURLINGTON VT
100 AM EDT WED AUG 05 2015

NOTE: "FAIR" INDICATES FEW OR NO CLOUDS BELOW 12,000 FEET WITH NO
SIGNIFICANT WEATHER AND/OR OBSTRUCTIONS TO VISIBILITY.

* THESE REPORTS ARE NOT UNDER NWS QUALITY CONTROL AND/OR DO NOT
  REPORT WEATHER SUCH AS PRECIPITATION AND FOG.

VTZ001>019-050600-
_____VERMONT_____


CITY           SKY/WX    TMP DP  RH WIND       PRES   REMARKS
BURLINGTON     LGT RAIN  64  58  80 CALM      29.87R
MONTPELIER     CLEAR     57  55  93 S5        29.93S
MORRISVILLE    MOCLDY    59  55  87 CALM      29.90R
ST. JOHNSBURY*   N/A     61  58  90 MISG      29.87S
LYNDONVILLE*   FOG       57  56  97 CALM      29.91S VSB 3/4
MIDDLEBURY*    LGT RAIN  65  57  76 CALM      29.88S
RUTLAND*       PTCLDY    59  52  77 SE8       29.91R
SPRINGFIELD    FOG       59  58  96 W3        29.91S VSB 3/4
HIGHGATE*      LGT RAIN  62  59  91 S5        29.85F
NEWPORT*       MOCLDY    58  56  94 W3        29.89S
BENNINGTON     CLEAR     56  54  93 CALM      29.93R

_____LAKE CHAMPLAIN_____


CITY           SKY/WX    TMP DP  RH WIND       PRES   REMARKS

$$

NYZ007-026>031-035-052-083-050600-
_____NORTHERN NEW YORK_____


CITY           SKY/WX    TMP DP  RH WIND       PRES   REMARKS
PLATTSBURGH    CLOUDY    61  59  93 CALM      29.85S
SARANAC LAKE   CLOUDY    56  52  86 SW3       29.90S
MASSENA        MOCLDY    61  59  93 SW5       29.86S
OGDENSBURG*    CLEAR     61  61 100 S3        29.87R
POTSDAM*       CLOUDY    61  61 100 SW5       29.88R
WATERTOWN      PTCLDY    61  59  93 S6        29.89R
FT DRUM        MOCLDY    63  59  88 SW7       29.90R
ALBANY         PTCLDY    64  56  75 SE3       29.91S
GLENS FALLS    MOCLDY    63  57  81 CALM      29.90R

$$
NHZ002-005-011-050600-
_____NEW HAMPSHIRE_____


CITY           SKY/WX    TMP DP  RH WIND       PRES   REMARKS
LEBANON        PTCLDY    58  56  93 CALM      29.88F FOG
KEENE          CLEAR     57  52  82 CALM      29.91R
MT WASHINGTON  FOG       43  43 100 W28         N/A  VSB 0
PLYMOUTH         N/A     57  57 100 CALM      29.89S FOG
WHITEFIELD     MOCLDY    60  57  89 CALM      29.89F

$$

_____REGIONAL QUEBEC LOCATIONS_____


CITY           SKY/WX    TMP DP  RH WIND       PRES   REMARKS
MONTREAL       CLOUDY    64  61  88 SW9       29.83S
QUEBEC CITY    PTCLDY    59  57  94 S3        29.79R
SHERBROOKE     MOCLDY    57  57 100 W6        29.87R

_____REGIONAL ONTARIO LOCATIONS_____


CITY           SKY/WX    TMP DP  RH WIND       PRES   REMARKS
OTTAWA         PTCLDY    59  59 100 SW6       29.85S

______KEY______
VSB  - VISIBILITY IN MILES
WCI  - WIND CHILL INDEX
HX   - HEAT INDEX
$$
NNNN


USA.gov is the U.S. government's official web portal to all federal, state and local government web resources and services.